This demonstration page uses our WeatherBlox Daily Observations layout. Learn more.

Left ArrowRight Arrow

Hourly Observations for February 14, 2019

Temp ( °F °C ) Dew Point ( °F °C ) Humidity (%) Winds ( mph kmh ) Pressure ( in mb ) Visibility ( mi km ) Precip ( " mm )
12:53 am 00:53 Clear 31 -0.6 26 -3.3 82 82 N N/A 30.06 1018 10 16.0934 N/A
1:53 am 01:53 Clear 32 undefined 26 -3.3 79 79 N N/A 30.05 1018 10 16.0934 N/A
2:53 am 02:53 Clear 33 0.6 26 -3.3 75 75 N N/A 30.04 1017 10 16.0934 N/A
3:53 am 03:53 Clear 34 1.1 26 -3.3 73 73 ESE 3 6 30.02 1017 10 16.0934 N/A
4:53 am 04:53 Clear 34 1.1 27 -2.8 76 76 ESE 6 9 30.01 1016 10 16.0934 N/A
5:53 am 05:53 Clear 34 1.1 27 -2.8 76 76 E 5 7 29.99 1016 10 16.0934 N/A
6:53 am 06:53 Clear 37 2.8 27 -2.8 67 67 E 5 7 29.97 1015 10 16.0934 N/A
7:53 am 07:53 Sunny 37 2.8 27 -2.8 67 67 E 7 11 29.96 1014 10 16.0934 N/A
8:53 am 08:53 Sunny 40 4.4 28 -2.2 63 63 ESE 3 6 29.94 1014 10 16.0934 N/A
9:53 am 09:53 Sunny 42 5.6 29 -1.7 60 60 VRB 3 6 29.92 1013 10 16.0934 N/A
10:53 am 10:53 Sunny 46 7.8 29 -1.7 51 51 VRB 5 7 29.9 1012 10 16.0934 N/A
11:53 am 11:53 Sunny 47 8.3 29 -1.7 50 50 VRB 5 7 29.85 1011 10 16.0934 N/A
12:53 pm 12:53 Sunny 49 9.4 29 -1.7 46 46 VRB 6 9 29.79 1009 10 16.0934 N/A
1:53 pm 13:53 Sunny 52 11.1 28 -2.2 40 40 SSW 8 13 29.75 1007 10 16.0934 N/A
2:53 pm 14:53 Sunny 53 11.7 27 -2.8 37 37 VRB 7 11 29.69 1005 10 16.0934 N/A
3:53 pm 15:53 Sunny 55 12.8 27 -2.8 34 34 VRB 3 6 29.67 1005 10 16.0934 N/A
4:53 pm 16:53 Sunny 55 12.8 25 -3.9 31 31 SSW 12 19 29.66 1004 10 16.0934 N/A
5:53 pm 17:53 Sunny 54 12.2 26 -3.3 34 34 SSW 3 6 29.65 1004 10 16.0934 N/A
6:53 pm 18:53 Clear 55 12.8 27 -2.8 34 34 SSW 10 17 29.65 1004 10 16.0934 N/A
7:53 pm 19:53 Cloudy 55 12.8 28 -2.2 35 35 SW 12 19 29.66 1004 10 16.0934 N/A
8:53 pm 20:53 Cloudy 54 12.2 29 -1.7 38 38 SSW 10 17 29.65 1004 10 16.0934 N/A
9:53 pm 21:53 Cloudy 54 12.2 30 -1.1 40 40 SSW 9 15 29.65 1004 10 16.0934 N/A
10:53 pm 22:53 Cloudy 54 12.2 31 -0.6 42 42 SW 8 13 29.64 1004 10 16.0934 N/A
11:53 pm 23:53 Cloudy 53 11.7 32 undefined 45 45 SW 8 13 29.65 1004 10 16.0934 N/A

Powered by AerisWeather